EW3711 Weather Reports


time (UTC)temp
F
wind
direction
speed
knots
gust
knots
rain 1hr
in
rain 24hr
in
rain mn
in
humidity
%
barometer
mb
20260502194443 66 221 1.7 10.4 0.00 0.00 0.00 38 1006.8
20260502193939 66 160 1.7 8.7 0.00 0.00 0.00 41 1006.8
20260502193436 65 160 3.5 11.3 0.00 0.00 0.00 39 1006.8
20260502192931 65 169 4.3 11.3 0.00 0.00 0.00 40 1006.8
20260502192429 66 193 3.5 11.3 0.00 0.00 0.00 41 1006.8
20260502191926 65 146 4.3 13.9 0.00 0.00 0.00 42 1006.8
20260502191424 64 179 5.2 13.9 0.00 0.00 0.00 41 1006.8
20260502190921 64 216 4.3 10.4 0.00 0.00 0.00 40 1006.8
20260502190418 64 198 6.1 11.3 0.00 0.00 0.00 42 1006.8
20260502185914 63 190 7.0 12.2 0.00 0.00 0.00 41 1006.8
20260502185409 63 181 7.8 14.8 0.00 0.00 0.00 42 1006.8
20260502184907 63 180 7.8 14.8 0.00 0.00 0.00 42 1006.8
20260502184402 62 160 7.8 13.9 0.00 0.00 0.00 44 1006.8
20260502183859 62 165 9.6 14.8 0.00 0.00 0.00 42 1006.8
20260502183355 61 203 10.4 14.8 0.00 0.00 0.00 41 1007.2
20260502182850 61 195 9.6 16.5 0.00 0.00 0.00 45 1007.2
20260502182346 61 174 10.4 17.4 0.00 0.00 0.00 42 1007.2
20260502181842 61 175 9.6 17.4 0.00 0.00 0.00 43 1007.2
20260502181341 61 141 9.6 15.6 0.00 0.00 0.00 43 1007.2
20260502180839 60 150 10.4 15.6 0.00 0.00 0.00 45 1007.2
20260502180336 60 167 10.4 17.4 0.00 0.00 0.00 44 1007.5
20260502170255 58 172 11.3 16.5 0.00 0.00 0.00 47 1007.9
20260502164242 57 172 10.4 17.4 0.00 0.00 0.00 49 1007.9
20260502163738 57 122 11.3 17.4 0.00 0.00 0.00 50 1007.9
20260502163235 57 132 8.7 14.8 0.00 0.00 0.00 53 1007.9
20260502162731 57 101 7.0 13.0 0.00 0.00 0.00 53 1008.2
20260502162229 57 160 8.7 13.9 0.00 0.00 0.00 50 1008.6
20260502161726 57 122 10.4 14.8 0.00 0.00 0.00 52 1008.6
20260502161222 57 105 10.4 14.8 0.00 0.00 0.00 52 1008.6
20260502160720 56 165 8.7 13.9 0.00 0.00 0.00 57 1008.6
20260502160219 55 100 6.1 13.0 0.00 0.00 0.00 57 1008.6
20260502152143 50 172 0.9 6.1 0.00 0.00 0.00 63 1009.7
20260502151640 49 201 0.9 6.1 0.00 0.00 0.00 64 1010.0
20260502151137 49 204 0.0 0.0 0.00 0.00 0.00 65 1010.0
20260502150635 49 169 0.0 7.0 0.00 0.00 0.00 64 1009.7
20260502150131 49 181 0.9 7.0 0.00 0.00 0.00 63 1010.0
20260502130520 46 152 9.6 15.6 0.00 0.00 0.00 67 1009.7
20260502123503 42 165 3.5 7.8 0.00 0.00 0.00 77 1010.3
20260502122959 41 150 2.6 7.0 0.00 0.00 0.00 78 1010.3
20260502122455 40 166 2.6 7.0 0.00 0.00 0.00 78 1010.3
20260502121954 40 173 1.7 7.0 0.00 0.00 0.00 79 1010.3
20260502121450 39 147 0.9 5.2 0.00 0.00 0.00 80 1010.3
20260502120948 39 170 1.7 5.2 0.00 0.00 0.00 81 1010.3
20260502120444 38 162 0.9 4.3 0.00 0.00 0.00 83 1010.7
20260502115439 38 171 0.9 3.5 0.00 0.00 0.00 83 1010.7
20260502114934 37 152 0.9 3.5 0.00 0.00 0.00 83 1010.7
20260502114432 37 134 0.9 3.5 0.00 0.00 0.00 84 1010.7
20260502113929 37 145 0.9 4.3 0.00 0.00 0.00 85 1010.7
20260502113426 36 117 0.9 4.3 0.00 0.00 0.00 85 1011.0
20260502112925 36 148 0.9 4.3 0.00 0.00 0.00 86 1010.7
20260502112422 36 122 0.9 4.3 0.00 0.00 0.00 85 1011.0
20260502111920 36 115 0.9 5.2 0.00 0.00 0.00 85 1011.0
20260502111416 36 136 0.9 5.2 0.00 0.00 0.00 86 1011.0
20260502110914 35 133 0.0 3.5 0.00 0.00 0.00 86 1011.0
20260502110411 35 143 0.0 2.6 0.00 0.00 0.00 87 1011.0
20260502105909 35 125 0.0 4.3 0.00 0.00 0.00 87 1011.0
20260502105405 35 139 0.0 4.3 0.00 0.00 0.00 86 1011.0
20260502104903 35 131 0.0 4.3 0.00 0.00 0.00 86 1011.5
20260502104400 35 99 0.9 4.3 0.00 0.00 0.00 85 1011.5
20260502103858 36 136 0.9 5.2 0.00 0.00 0.00 86 1011.5
20260502103355 36 136 0.9 5.2 0.00 0.00 0.00 86 1011.5
20260502102852 36 136 1.7 4.3 0.00 0.00 0.00 86 1011.5
20260502102349 36 126 1.7 4.3 0.00 0.00 0.00 86 1011.5
20260502101846 35 134 0.9 4.3 0.00 0.00 0.00 86 1011.8
20260502101344 35 124 0.0 4.3 0.00 0.00 0.00 86 1011.8
20260502100842 35 126 0.0 4.3 0.00 0.00 0.00 86 1011.8
20260502100342 35 131 0.0 5.2 0.00 0.00 0.00 85 1011.8
20260502091315 37 140 1.7 5.2 0.00 0.00 0.00 82 1012.1
20260502090813 37 147 1.7 6.1 0.00 0.00 0.00 82 1012.1
20260502090309 37 147 0.9 6.1 0.00 0.00 0.00 81 1012.5
20260502071204 40 76 7.8 14.8 0.00 0.00 0.00 72 1013.6
20260502070703 40 79 6.1 12.2 0.00 0.00 0.00 72 1013.9
20260502070200 39 92 5.2 11.3 0.00 0.00 0.00 72 1013.9
20260502065658 39 96 7.0 11.3 0.00 0.00 0.00 72 1013.9
20260502065155 40 91 6.1 10.4 0.00 0.00 0.00 72 1014.3
20260502064654 40 93 6.1 10.4 0.00 0.00 0.00 71 1014.3
20260502064151 40 82 7.8 12.2 0.00 0.00 0.00 71 1014.3
20260502063649 41 108 9.6 13.0 0.00 0.00 0.00 70 1014.6
20260502063146 41 104 8.7 13.0 0.00 0.00 0.00 69 1014.6
20260502062643 41 91 7.0 13.0 0.00 0.00 0.00 71 1014.6
20260502062141 40 89 5.2 11.3 0.00 0.00 0.00 72 1014.6
20260502061639 40 96 5.2 11.3 0.00 0.00 0.00 72 1014.6
20260502061136 40 83 6.1 11.3 0.00 0.00 0.00 72 1014.6
20260502060631 41 82 7.0 13.9 0.00 0.00 0.00 71 1014.6
20260502060127 41 82 7.8 13.9 0.00 0.00 0.00 71 1014.6
20260502055626 40 104 7.0 13.9 0.00 0.00 0.00 72 1015.0
20260502055123 41 100 5.2 13.9 0.00 0.00 0.00 72 1015.0
20260502054622 40 98 4.3 11.3 0.00 0.00 0.00 74 1015.0
20260502054119 40 87 4.3 9.6 0.00 0.00 0.00 74 1015.0
20260502053616 40 113 4.3 10.4 0.00 0.00 0.00 74 1015.0
20260502053113 40 86 4.3 10.4 0.00 0.00 0.00 74 1015.0
20260502052612 40 86 4.3 9.6 0.00 0.00 0.00 73 1015.0
20260502052110 40 96 5.2 9.6 0.00 0.00 0.00 73 1015.3
20260502051607 41 115 5.2 10.4 0.00 0.00 0.00 73 1015.3
20260502051105 41 100 5.2 10.4 0.00 0.00 0.00 72 1015.3
20260502050601 41 89 4.3 10.4 0.00 0.00 0.00 72 1015.3
20260502050058 41 78 3.5 10.4 0.00 0.00 0.00 72 1015.3
20260502045554 41 79 5.2 10.4 0.00 0.00 0.00 71 1015.3
20260502045051 41 97 5.2 10.4 0.00 0.00 0.00 71 1015.6
20260502044548 41 114 4.3 9.6 0.00 0.00 0.00 70 1015.6
20260502044045 41 85 3.5 9.6 0.00 0.00 0.00 70 1015.6
20260502043542 41 102 4.3 9.6 0.00 0.00 0.00 70 1015.6
20260502043038 42 86 4.3 10.4 0.00 0.00 0.00 70 1015.6
20260502042533 42 82 5.2 10.4 0.00 0.00 0.00 69 1015.6
20260502042031 42 88 6.1 10.4 0.00 0.00 0.00 68 1015.6
20260502041529 43 96 7.0 10.4 0.00 0.00 0.00 68 1015.6
20260502041026 43 80 7.0 11.3 0.00 0.00 0.00 66 1015.6
20260502040522 43 92 7.0 11.3 0.00 0.00 0.00 66 1015.6
20260502040020 44 96 4.3 10.4 0.00 0.00 0.00 66 1015.6
20260502035515 43 97 1.7 7.8 0.00 0.00 0.00 67 1015.6
20260502035013 43 67 1.7 7.0 0.00 0.00 0.00 69 1015.6
20260502034511 42 99 0.9 4.3 0.00 0.00 0.00 70 1015.6
20260502034009 43 104 0.9 6.1 0.00 0.00 0.00 69 1015.6
20260502033507 43 68 0.0 6.1 0.00 0.00 0.00 69 1015.6
20260502033004 43 89 0.0 5.2 0.00 0.00 0.00 68 1016.1
20260502032500 42 27 0.0 4.3 0.00 0.00 0.00 70 1015.6
20260502031956 43 32 0.0 4.3 0.00 0.00 0.00 70 1016.1
20260502031454 43 152 0.0 2.6 0.00 0.00 0.00 70 1016.1
20260502030952 43 45 0.0 2.6 0.00 0.00 0.00 70 1016.1
20260502030450 43 141 0.0 2.6 0.00 0.00 0.00 70 1016.1
20260502025948 43 158 0.0 2.6 0.00 0.00 0.00 70 1016.1
20260502025445 43 143 0.0 1.7 0.00 0.00 0.00 70 1016.1
20260502024943 43 80 0.0 0.0 0.00 0.00 0.00 69 1016.1
20260502024441 43 64 0.0 0.0 0.00 0.00 0.00 69 1016.1
20260502023939 43 102 0.0 0.0 0.00 0.00 0.00 69 1016.1
20260502023436 44 92 0.0 0.9 0.00 0.00 0.00 69 1016.1
20260502022933 44 140 0.0 0.9 0.00 0.00 0.00 68 1015.6
20260502022430 44 123 0.0 1.7 0.00 0.00 0.00 68 1016.1
20260502021927 45 33 0.0 1.7 0.00 0.00 0.00 67 1016.1
20260502021424 46 85 0.0 7.0 0.00 0.00 0.00 66 1016.1
20260502020921 47 70 0.9 7.0 0.00 0.00 0.00 65 1016.1
20260502020419 47 101 0.0 2.6 0.00 0.00 0.00 64 1015.6
20260502015915 47 56 0.0 2.6 0.00 0.00 0.00 65 1015.6
20260502015413 48 103 0.0 2.6 0.00 0.00 0.00 64 1015.6
20260502014910 48 91 0.0 1.7 0.00 0.00 0.00 62 1015.6
20260502014406 49 30 0.0 0.0 0.00 0.00 0.00 60 1015.6
20260502013903 50 89 0.0 0.0 0.00 0.00 0.00 57 1016.1
20260502013358 51 77 0.0 0.0 0.00 0.00 0.00 56 1016.1
20260502012855 52 118 0.0 0.0 0.00 0.00 0.00 55 1016.1
20260502012353 53 118 0.0 3.5 0.00 0.00 0.00 52 1016.1
20260502011850 54 86 0.9 5.2 0.00 0.00 0.00 50 1016.1
20260502011346 54 80 0.9 5.2 0.00 0.00 0.00 50 1016.1
20260502010843 55 131 0.0 5.2 0.00 0.00 0.00 49 1016.1
20260502010340 56 92 0.0 5.2 0.00 0.00 0.00 46 1016.1
20260502005837 56 97 0.0 4.3 0.00 0.00 0.00 45 1016.1
20260502005335 57 83 0.0 0.0 0.00 0.00 0.00 43 1016.1
20260502004832 57 98 0.0 0.0 0.00 0.00 0.00 44 1016.1
20260502004328 57 91 0.0 0.0 0.00 0.00 0.00 42 1016.1
20260502003826 57 166 0.0 1.7 0.00 0.00 0.00 44 1016.1
20260502003323 57 82 0.0 4.3 0.00 0.00 0.00 42 1016.1
20260502002819 57 47 0.0 7.8 0.00 0.00 0.00 41 1016.4
20260502002316 57 99 0.0 7.8 0.00 0.00 0.00 41 1016.1
20260502001813 58 111 0.0 7.8 0.00 0.00 0.00 40 1016.1
20260502001311 58 118 0.0 5.2 0.00 0.00 0.00 40 1016.4
20260502000809 58 115 0.0 0.0 0.00 0.00 0.00 39 1016.4
20260502000306 58 149 0.0 4.3 0.00 0.00 0.00 39 1016.4
20260501235802 57 135 0.0 4.3 0.00 0.00 0.00 41 1016.4
20260501235258 57 65 0.0 3.5 0.00 0.00 0.00 41 1016.4
20260501234754 57 64 0.0 0.0 0.00 0.00 0.00 41 1016.4
20260501234251 57 134 0.0 2.6 0.00 0.00 0.00 41 1016.4
20260501233749 58 43 0.9 7.0 0.00 0.00 0.00 41 1016.7
20260501233246 58 139 0.0 7.0 0.00 0.00 0.00 40 1016.7
20260501232741 58 136 0.0 5.2 0.00 0.00 0.00 40 1016.7
20260501232239 58 306 0.0 0.0 0.00 0.00 0.00 39 1016.7
20260501231737 58 165 0.0 0.0 0.00 0.00 0.00 40 1016.7
20260501231235 57 40 0.0 0.0 0.00 0.00 0.00 40 1016.7
20260501230733 58 108 0.0 0.0 0.00 0.00 0.00 40 1016.7
20260501230231 58 117 0.0 6.1 0.00 0.00 0.00 40 1016.7
20260501225728 58 168 0.0 6.1 0.00 0.00 0.00 40 1016.7
20260501225225 58 190 0.0 6.1 0.00 0.00 0.00 40 1016.7
20260501224721 58 186 0.0 4.3 0.00 0.00 0.00 39 1017.1
20260501224219 58 186 0.0 7.0 0.00 0.00 0.00 39 1017.1
20260501223715 57 204 0.0 7.0 0.00 0.00 0.00 41 1017.1
20260501223212 57 258 0.0 0.0 0.00 0.00 0.00 40 1017.1
20260501222708 57 177 0.0 0.0 0.00 0.00 0.00 40 1017.1
20260501222205 57 169 0.9 7.8 0.00 0.00 0.00 42 1017.1
20260501221701 57 139 0.9 7.8 0.00 0.00 0.00 39 1017.4
20260501221159 57 161 0.0 6.1 0.00 0.00 0.00 41 1017.4
20260501220657 56 174 0.0 0.0 0.00 0.00 0.00 41 1017.4
20260501220154 56 26 0.0 0.0 0.00 0.00 0.00 41 1017.4
20260501215650 56 285 0.0 3.5 0.00 0.00 0.00 41 1017.8
20260501215145 56 216 0.0 3.5 0.00 0.00 0.00 40 1017.8
20260501214641 56 210 0.0 3.5 0.00 0.00 0.00 41 1017.8
20260501214136 56 195 0.9 9.6 0.00 0.00 0.00 40 1017.8
20260501213634 56 250 0.9 9.6 0.00 0.00 0.00 40 1017.8
20260501213130 56 245 0.0 0.0 0.00 0.00 0.00 41 1017.8
20260501212627 56 32 0.0 0.0 0.00 0.00 0.00 40 1017.8
20260501212123 56 314 0.0 0.9 0.00 0.00 0.00 39 1017.8
20260501211620 56 203 0.0 0.9 0.00 0.00 0.00 41 1017.8
20260501211118 55 136 0.0 0.0 0.00 0.00 0.00 41 1017.8
20260501210614 55 181 0.0 0.0 0.00 0.00 0.00 41 1017.8
20260501210111 55 193 0.0 7.0 0.00 0.00 0.00 40 1018.2
20260501205607 55 210 0.0 7.0 0.00 0.00 0.00 39 1018.2
20260501205105 55 159 0.0 7.0 0.00 0.00 0.00 42 1018.2
20260501204601 55 205 0.0 0.9 0.00 0.00 0.00 41 1018.2
20260501204057 55 240 0.0 0.9 0.00 0.00 0.00 41 1018.2
20260501203554 56 252 0.0 3.5 0.00 0.00 0.00 40 1018.2
20260501203051 56 171 0.0 3.5 0.00 0.00 0.00 40 1018.2
20260501202548 55 155 0.0 0.0 0.00 0.00 0.00 40 1018.2
20260501202045 54 23 0.0 0.0 0.00 0.00 0.00 40 1018.5
20260501201542 54 203 0.0 0.0 0.00 0.00 0.00 41 1018.5
20260501201038 53 67 0.9 7.8 0.00 0.00 0.00 42 1018.5
20260501200535 53 233 0.9 7.8 0.00 0.00 0.00 43 1018.5
20260501200033 53 212 0.0 5.2 0.00 0.00 0.00 43 1018.5
20260501195530 53 355 0.0 5.2 0.00 0.00 0.00 43 1018.5
20260501195025 53 231 0.9 7.8 0.00 0.00 0.00 44 1018.5